Location: Unspecified
(0.0000°N, 0.0000°E)
Time: 09:23:50
(UTC+00:00)

Vanguard 2 Rocket - Pass Details

Date: 13 October 2022
Orbit: 555 x 3321 km, 32.9° (Epoch: 06 December)

Event Time Altitude Azimuth Distance (km) Brightness Sun altitude
Rises 18:58:55 0° 269° (W) 6,750 13.0 -18.0°
Reaches altitude 10° 19:04:08 10° 278° (W) 5,996 12.2 -19.3°
Maximum altitude 19:20:14 31° 333° (NNW) 4,726 10.6 -23.3°
Drops below altitude 10° 19:35:45 10° 29° (NNE) 5,700 10.6 -27.1°
Enters shadow 19:36:51 - 32° (NNE) 5,840 10.6 -27.4°
Sets 19:40:41 0° 40° (NE) 6,378 - -28.3°
